Preview of NWS' New Version of Forecast
This preview is not operational and should not be used for support decisions.

Regional Weather Roundup (RWR)

Issued by National Weather Service (NWS)

                            
000
ASUS43 KLSX 181157
RWRMO 

WEATHER SUMMARY FOR MISSOURI
NATIONAL WEATHER SERVICE SPRINGFIELD MO
700 AM CDT MON MAR 18 2019

NOTE: "FAIR" INDICATES FEW OR NO CLOUDS BELOW 12,000 FEET WITH NO
       SIGNIFICANT WEATHER AND/OR OBSTRUCTIONS TO VISIBILITY.
       CURRENT SKY AND/OR WEATHER CONDITIONS ARE NOT AVAILABLE FOR
       CHILLICOTHE AND FARMINGTON.

MOZ001>031-035>038-043-044-053-054-181300-
...NORTHERN AND WESTERN MISSOURI...
  
CITY           SKY/WX    TMP DP  RH WIND       PRES   REMARKS
KANSAS CTY INT MOCLDY    35  28  75 NE7       30.42R WCI  29          
6HR MIN TEMP:  34; 6HR MAX TEMP:  43;                                

LEE'S SUMMIT   CLOUDY    37  30  75 NE8       30.41R                  
6HR MIN TEMP:  37; 6HR MAX TEMP:  43;                                

ST JOSEPH      CLEAR     29  25  85 N3        30.44R                  
6HR MIN TEMP:  28; 6HR MAX TEMP:  38;                                

CHILLICOTHE      N/A     27  25  92 CALM      30.44R                  
6HR MIN TEMP:  27; 6HR MAX TEMP:  35;                                

     
$$
MOZ066>068-077>081-088>096-101>105-181300-
...SOUTHWEST MISSOURI...
  
CITY           SKY/WX    TMP DP  RH WIND       PRES   REMARKS
SPRINGFIELD    PTCLDY    37  25  61 NE3       30.36R                  
6HR MIN TEMP:  35; 6HR MAX TEMP:  43;                                

JOPLIN         CLEAR     39  26  59 NE6       30.37R                  
6HR MIN TEMP:  39; 6HR MAX TEMP:  47;                                

BRANSON        CLOUDY    41  23  48 SE7       30.36S                  
               
$$
MOZ032>034-039>042-045>050-055>058-069>072-181300-
...CENTRAL MISSOURI...  
  
CITY           SKY/WX    TMP DP  RH WIND       PRES   REMARKS
COLUMBIA       NOT AVBL                                               
JEFFERSON CITY CLOUDY    33  27  78 CALM      30.41R                  
6HR MIN TEMP:  32; 6HR MAX TEMP:  38;                                

ROLLA          CLOUDY    36  27  69 N3        30.37R                  
6HR MIN TEMP:  32; 6HR MAX TEMP:  40;                                

SEDALIA        CLOUDY    37  30  75 NE8       30.41R                  
6HR MIN TEMP:  37; 6HR MAX TEMP:  43;                                

WARRENSBURG    CLOUDY    37  30  75 N6        30.41R                  
               
$$
MOZ051-052-059>065-181300-
...EAST CENTRAL MISSOURI...
  
CITY           SKY/WX    TMP DP  RH WIND       PRES   REMARKS
ST LOUIS INTL  PTCLDY    33  27  78 CALM      30.40R                  
6HR MIN TEMP:  32; 6HR MAX TEMP:  38;                                

                   
$$
MOZ072>076-082>087-097>100-106>115-181300-
...SOUTH CENTRAL AND SOUTHEAST MISSOURI...
  
CITY           SKY/WX    TMP DP  RH WIND       PRES   REMARKS
CAPE GIRARDEAU FAIR      34  31  88 CALM      30.38R                  
6HR MIN TEMP:  33; 6HR MAX TEMP:  39;                                

POPLAR BLUFF   CLOUDY    41  34  76 CALM      30.38R                  
6HR MIN TEMP:  40; 6HR MAX TEMP:  44;                                

                                       
$$